EW0680 Weather Reports


time (UTC)temp
C
wind
direction
speed
KPH
gust
KPH
rain 1hr
cm
rain 24hr
cm
rain mn
cm
humidity
%
barometer
mb
20260510204516 18 319 6.4 14.5 0.00 0.03 0.03 46 1016.3
20260510203050 17 358 12.9 22.5 0.00 0.03 0.03 43 1016.2
20260510201606 17 19 11.3 20.9 0.00 0.03 0.03 46 1016.5
20260510200005 18 309 3.2 14.5 0.00 0.03 0.03 51 1016.6
20260510194512 17 358 6.4 17.7 0.00 0.03 0.03 47 1016.6
20260510193104 17 335 11.3 24.1 0.00 0.03 0.03 44 1016.7
20260510191603 17 358 1.6 25.7 0.00 0.03 0.03 47 1016.9
20260510191502 17 349 6.4 25.7 0.00 0.03 0.03 46 1016.9
20260510190005 17 346 8.0 17.7 0.00 0.03 0.03 49 1016.8
20260510184600 17 358 9.7 19.3 0.00 0.03 0.03 49 1016.7
20260510184506 17 19 9.7 19.3 0.00 0.03 0.03 50 1016.7
20260510183048 17 348 8.0 14.5 0.00 0.03 0.03 47 1016.7
20260510181552 17 343 6.4 14.5 0.00 0.03 0.03 51 1016.5
20260510180052 17 258 3.2 16.1 0.00 0.03 0.03 48 1016.6
20260510174555 17 345 9.7 20.9 0.00 0.03 0.03 50 1016.7
20260510173036 17 50 6.4 14.5 0.00 0.03 0.03 50 1016.7
20260510171538 17 357 1.6 12.9 0.00 0.03 0.03 53 1016.7
20260510170038 16 340 8.0 22.5 0.00 0.03 0.03 52 1016.2
20260510164558 16 358 9.7 17.7 0.00 0.03 0.03 53 1016.1
20260510163044 16 33 0.0 16.1 0.00 0.03 0.03 57 1016.5
20260510161553 16 347 4.8 19.3 0.00 0.03 0.03 57 1016.5
20260510160056 16 14 6.4 17.7 0.00 0.03 0.03 60 1016.6
20260510154600 15 336 4.8 16.1 0.00 0.03 0.03 61 1016.2
20260510154502 15 61 6.4 16.1 0.00 0.03 0.03 60 1016.3
20260510153013 15 125 3.2 12.9 0.00 0.03 0.03 64 1016.3
20260510151506 15 345 3.2 14.5 0.00 0.03 0.03 63 1016.1
20260510150012 15 4 6.4 16.1 0.00 0.03 0.03 66 1015.9
20260510144521 15 348 4.8 14.5 0.00 0.03 0.03 66 1015.7
20260510143019 15 4 1.6 14.5 0.00 0.03 0.03 66 1015.5
20260510141523 14 113 3.2 14.5 0.00 0.03 0.03 67 1015.2
20260510140029 14 77 3.2 12.9 0.00 0.03 0.03 68 1015.1
20260510134514 13 84 4.8 12.9 0.00 0.03 0.03 67 1015.0
20260510133017 13 343 4.8 14.5 0.00 0.03 0.03 70 1014.7
20260510131519 13 312 1.6 14.5 0.00 0.03 0.03 72 1014.5
20260510130020 12 7 1.6 16.1 0.00 0.03 0.03 76 1014.1
20260510124521 12 329 4.8 12.9 0.00 0.03 0.03 77 1014.0
20260510123019 12 340 4.8 9.7 0.00 0.03 0.03 76 1013.7
20260510121600 12 324 0.0 4.8 0.00 0.03 0.03 77 1013.4
20260510121502 12 318 0.0 4.8 0.00 0.03 0.03 77 1013.4
20260510120009 12 331 3.2 9.7 0.00 0.03 0.03 76 1013.3
20260510114513 12 212 3.2 8.0 0.00 0.03 0.03 76 1013.1
20260510113019 11 333 3.2 12.9 0.00 0.03 0.03 78 1013.0
20260510111520 11 348 6.4 9.7 0.00 0.03 0.03 78 1012.8
20260510110034 11 329 0.0 8.0 0.00 0.05 0.03 78 1012.6
20260510104530 11 336 4.8 8.0 0.00 0.05 0.03 78 1012.4
20260510103040 11 346 4.8 8.0 0.00 0.05 0.03 80 1012.2
20260510101533 11 346 3.2 6.4 0.00 0.05 0.03 78 1012.1
20260510100047 11 339 3.2 6.4 0.00 0.05 0.03 78 1012.1
20260510094544 12 349 3.2 6.4 0.00 0.05 0.03 75 1011.6
20260510093035 12 355 9.7 17.7 0.00 0.05 0.03 75 1011.5
20260510091534 12 356 4.8 14.5 0.03 0.05 0.03 76 1011.4
20260510090036 12 352 4.8 14.5 0.03 0.10 0.03 76 1011.2
20260510084549 12 354 8.0 14.5 0.03 0.10 0.03 76 1011.1
20260510083032 12 342 6.4 16.1 0.03 0.10 0.03 76 1010.6
20260510081523 12 360 8.0 14.5 0.00 0.08 0.00 77 1010.6
20260510080017 13 355 11.3 16.1 0.00 0.15 0.00 76 1010.3
20260510074517 13 337 4.8 12.9 0.00 0.15 0.00 79 1010.2
20260510073017 13 339 6.4 16.1 0.00 0.15 0.00 77 1009.9
20260510071517 13 346 8.0 14.5 0.00 0.15 0.00 79 1009.7
20260510070025 14 347 9.7 17.7 0.00 0.30 0.00 83 1009.7
20260510064526 14 342 4.8 11.3 0.00 0.30 0.00 88 1009.6
20260510063027 15 336 3.2 6.4 0.00 0.30 0.00 88 1009.3
20260510061527 15 293 1.6 6.4 0.00 0.30 0.00 87 1009.5
20260510060034 15 287 1.6 4.8 0.00 0.41 0.00 87 1009.5
20260510054525 15 300 0.0 3.2 0.00 0.41 0.00 87 1009.3
20260510053059 15 290 1.6 4.8 0.00 0.41 0.00 87 1009.3
20260510053001 15 290 1.6 4.8 0.00 0.41 0.00 87 1009.4
20260510051509 15 296 0.0 0.0 0.00 0.41 0.00 88 1009.3
20260510050009 15 296 0.0 0.0 0.00 0.53 0.00 87 1009.2
20260510044516 15 286 0.0 8.0 0.00 0.53 0.00 87 1009.1
20260510043011 15 330 9.7 17.7 0.00 0.53 0.00 85 1009.6
20260510041510 16 332 19.3 29.0 0.00 0.53 0.00 81 1009.5
20260510040012 16 326 3.2 6.4 0.00 0.69 0.53 78 1008.9
20260510034512 17 297 0.0 4.8 0.00 0.69 0.53 77 1008.6
20260510033018 16 293 1.6 4.8 0.00 0.69 0.53 77 1008.3
20260510031513 16 290 0.0 6.4 0.00 0.69 0.53 77 1008.2
20260510030056 16 287 3.2 4.8 0.00 0.84 0.53 76 1008.2
20260510024551 16 290 1.6 6.4 0.00 0.84 0.53 75 1008.2
20260510023041 17 289 3.2 6.4 0.00 0.84 0.53 75 1008.4
20260510021555 17 292 0.0 4.8 0.00 0.84 0.53 74 1008.2
20260510020009 17 290 1.6 4.8 0.00 0.89 0.53 73 1008.0
20260510014520 17 292 1.6 4.8 0.00 0.89 0.53 71 1007.6
20260510013015 18 287 1.6 4.8 0.00 0.89 0.53 69 1007.5
20260510011532 18 292 3.2 6.4 0.00 0.89 0.53 67 1007.2
20260510010035 18 288 3.2 6.4 0.00 0.91 0.53 65 1007.0
20260510004533 18 288 3.2 6.4 0.00 0.91 0.53 64 1006.7
20260510003041 19 282 1.6 4.8 0.00 0.91 0.53 64 1006.6
20260510001532 20 284 1.6 4.8 0.00 0.91 0.53 64 1006.4
20260510000042 20 291 3.2 6.4 0.00 0.97 0.53 68 1006.3
20260509234603 20 275 3.2 6.4 0.00 0.97 0.53 66 1006.1
20260509233055 20 291 3.2 11.3 0.00 0.97 0.53 65 1006.0
20260509231507 20 232 3.2 8.0 0.00 0.97 0.53 65 1005.9
20260509230011 21 257 1.6 9.7 0.00 0.97 0.53 64 1005.8
20260509224601 21 315 1.6 9.7 0.00 0.97 0.53 64 1005.8
20260509224503 21 221 3.2 9.7 0.00 0.97 0.53 63 1005.8
20260509223015 21 11 1.6 9.7 0.00 0.97 0.53 62 1005.8
20260509221531 22 299 4.8 19.3 0.00 0.97 0.53 58 1005.8
20260509220024 22 311 4.8 12.9 0.00 0.97 0.53 57 1005.7
20260509214530 22 325 4.8 11.3 0.00 0.97 0.53 55 1005.6
20260509213032 22 304 4.8 12.9 0.00 0.97 0.53 57 1005.6
20260509211536 22 308 1.6 14.5 0.00 0.97 0.53 58 1005.6
20260509210024 23 291 3.2 8.0 0.00 0.97 0.53 60 1005.7